When you browse on this site, cookies collect data to enhance your experience and personalize the content and advertising you see.
Visit our Privacy Policy to learn more. By continuing to use the site, you agree to this use of cookies and data.
  • In Czech Republic
  • List of Countries
  • For 7 days
  • Water Temperature
  • Satellite Maps
  • Weather Map
  • Weather Widgets
  • user-avatar
    Login

    Hourly Weather Lipsha

    Today, 21 November, Wednesday

    Time Temperature Precipitation Wind Pressure Humidity
    00:00 -7°C° 0 mm 4 mps 747 mmHg 77%
    01:00 -5°C° 0 mm 4 mps 747 mmHg 76%
    02:00 -6°C° 0 mm 5 mps 747 mmHg 75%
    03:00 -7°C° 0 mm 4 mps 746 mmHg 76%
    04:00 -6°C° 0 mm 5 mps 746 mmHg 77%
    05:00 -6°C° 0 mm 5 mps 745 mmHg 79%
    06:00 -6°C° 0 mm 5 mps 745 mmHg 80%
    07:00 -6°C° 0.1 mm 5 mps 745 mmHg 81%
    08:00 -5°C° 0.1 mm 5 mps 744 mmHg 82%
    09:00 -5°C° 0 mm 5 mps 744 mmHg 82%
    10:00 -4°C° 0.1 mm 6 mps 744 mmHg 80%
    11:00 -4°C° 0.1 mm 6 mps 744 mmHg 79%
    12:00 -3°C° 0.1 mm 6 mps 744 mmHg 77%
    13:00 -4°C° 0.1 mm 6 mps 744 mmHg 75%
    14:00 -4°C° 0.1 mm 5 mps 744 mmHg 73%
    15:00 -4°C° 0.1 mm 5 mps 744 mmHg 71%
    16:00 -5°C° 0 mm 5 mps 745 mmHg 73%
    17:00 -6°C° 0 mm 5 mps 745 mmHg 75%
    18:00 -7°C° 0 mm 4 mps 745 mmHg 76%
    19:00 -7°C° 0 mm 4 mps 745 mmHg 77%
    20:00 -8°C° 0 mm 4 mps 745 mmHg 79%
    21:00 -8°C° 0 mm 4 mps 745 mmHg 80%
    22:00 -8°C° 0 mm 4 mps 745 mmHg 81%
    23:00 -8°C° 0 mm 4 mps 745 mmHg 82%

    Tomorrow, 22 November, Thursday

    Time Temperature Precipitation Wind Pressure Humidity
    00:00 -8°C° 0 mm 4 mps 744 mmHg 82%
    01:00 -9°C° 0 mm 4 mps 744 mmHg 84%
    02:00 -9°C° 0 mm 4 mps 744 mmHg 86%
    03:00 -9°C° 0 mm 4 mps 743 mmHg 87%
    04:00 -8°C° 0 mm 4 mps 743 mmHg 87%
    05:00 -8°C° 0 mm 4 mps 742 mmHg 87%
    06:00 -8°C° 0 mm 4 mps 742 mmHg 87%
    07:00 -7°C° 0.1 mm 5 mps 741 mmHg 85%
    08:00 -7°C° 0.1 mm 5 mps 740 mmHg 83%
    09:00 -6°C° 0.1 mm 6 mps 740 mmHg 81%
    10:00 -6°C° 0.1 mm 6 mps 739 mmHg 80%
    11:00 -7°C° 0.1 mm 7 mps 738 mmHg 79%
    12:00 -7°C° 0.1 mm 7 mps 738 mmHg 79%
    13:00 -7°C° 0.3 mm 7 mps 737 mmHg 81%
    14:00 -6°C° 0.3 mm 6 mps 736 mmHg 83%
    15:00 -6°C° 0.3 mm 6 mps 735 mmHg 85%
    16:00 -6°C° 0.3 mm 6 mps 734 mmHg 86%
    17:00 -5°C° 0.3 mm 6 mps 734 mmHg 87%
    18:00 -5°C° 0.3 mm 6 mps 733 mmHg 88%
    19:00 -6°C° 0.5 mm 7 mps 733 mmHg 84%
    20:00 -6°C° 0.5 mm 7 mps 733 mmHg 80%
    21:00 -7°C° 0.5 mm 8 mps 733 mmHg 76%
    22:00 -7°C° 0.1 mm 7 mps 733 mmHg 77%
    23:00 -8°C° 0.1 mm 6 mps 734 mmHg 77%

    Day after tomorrow, 23 November, Friday

    Time Temperature Precipitation Wind Pressure Humidity
    00:00 -9°C° 0.1 mm 6 mps 734 mmHg 78%
    01:00 -9°C° 0.1 mm 6 mps 735 mmHg 77%
    02:00 -9°C° 0.1 mm 6 mps 736 mmHg 76%
    03:00 -9°C° 0.1 mm 7 mps 737 mmHg 74%
    04:00 -11°C° 0.2 mm 7 mps 738 mmHg 77%
    05:00 -11°C° 0.2 mm 7 mps 738 mmHg 79%
    06:00 -11°C° 0.2 mm 7 mps 739 mmHg 81%
    07:00 -11°C° 0.1 mm 7 mps 740 mmHg 80%
    08:00 -11°C° 0.1 mm 7 mps 741 mmHg 78%
    09:00 -10°C° 0.1 mm 6 mps 742 mmHg 76%
    10:00 -11°C° 0 mm 7 mps 743 mmHg 75%
    11:00 -11°C° 0 mm 7 mps 744 mmHg 74%
    12:00 -11°C° 0 mm 7 mps 745 mmHg 73%
    13:00 -10°C° 0 mm 6 mps 745 mmHg 73%
    14:00 -10°C° 0 mm 6 mps 746 mmHg 73%
    15:00 -11°C° 0 mm 6 mps 747 mmHg 73%
    16:00 -11°C° 0 mm 5 mps 747 mmHg 76%
    17:00 -12°C° 0 mm 5 mps 748 mmHg 78%
    18:00 -11°C° 0 mm 4 mps 748 mmHg 80%
    19:00 -11°C° 0 mm 4 mps 748 mmHg 81%
    20:00 -11°C° 0 mm 4 mps 748 mmHg 82%
    21:00 -11°C° 0 mm 4 mps 748 mmHg 83%
    22:00 -11°C° 0 mm 4 mps 748 mmHg 83%
    23:00 -11°C° 0 mm 4 mps 748 mmHg 83%

    24 November, Saturday

    Time Temperature Precipitation Wind Pressure Humidity
    00:00 -11°C° 0 mm 4 mps 749 mmHg 83%
    01:00 -11°C° 0 mm 4 mps 748 mmHg 84%
    02:00 -11°C° 0 mm 4 mps 748 mmHg 85%
    03:00 -11°C° 0 mm 4 mps 748 mmHg 86%
    04:00 -11°C° 0 mm 4 mps 748 mmHg 87%
    05:00 -11°C° 0 mm 5 mps 747 mmHg 88%
    06:00 -11°C° 0 mm 5 mps 747 mmHg 89%
    07:00 -11°C° 0 mm 5 mps 747 mmHg 88%
    08:00 -11°C° 0 mm 5 mps 746 mmHg 88%
    09:00 -10°C° 0 mm 6 mps 746 mmHg 87%
    10:00 -10°C° 0.1 mm 6 mps 745 mmHg 85%
    11:00 -9°C° 0.1 mm 6 mps 745 mmHg 83%
    12:00 -8°C° 0.1 mm 6 mps 744 mmHg 82%
    13:00 -6°C° 0.1 mm 6 mps 744 mmHg 81%
    14:00 -6°C° 0.1 mm 6 mps 744 mmHg 81%
    15:00 -6°C° 0.1 mm 6 mps 744 mmHg 81%
    16:00 -6°C° 0 mm 6 mps 744 mmHg 82%
    17:00 -6°C° 0 mm 6 mps 743 mmHg 82%
    18:00 -6°C° 0 mm 6 mps 743 mmHg 82%
    19:00 -6°C° 0 mm 6 mps 743 mmHg 83%
    20:00 -6°C° 0 mm 5 mps 743 mmHg 83%
    21:00 -6°C° 0 mm 5 mps 743 mmHg 84%
    22:00 -6°C° 0 mm 5 mps 743 mmHg 84%
    23:00 -6°C° 0 mm 6 mps 743 mmHg 84%

    25 November, Sunday

    Time Temperature Precipitation Wind Pressure Humidity
    00:00 -6°C° 0 mm 6 mps 743 mmHg 84%
    01:00 -6°C° 0.1 mm 6 mps 743 mmHg 84%
    02:00 -6°C° 0.1 mm 6 mps 743 mmHg 85%
    03:00 -6°C° 0.1 mm 6 mps 743 mmHg 85%
    04:00 -6°C° 0.1 mm 6 mps 743 mmHg 85%
    05:00 -6°C° 0.1 mm 5 mps 743 mmHg 85%
    06:00 -6°C° 0.1 mm 5 mps 744 mmHg 85%
    07:00 -6°C° 0 mm 5 mps 744 mmHg 87%
    08:00 -5°C° 0 mm 4 mps 745 mmHg 88%
    09:00 -7°C° 0 mm 4 mps 745 mmHg 90%
    10:00 -5°C° 0 mm 4 mps 746 mmHg 89%
    11:00 -5°C° 0 mm 4 mps 746 mmHg 88%
    12:00 -5°C° 0 mm 3 mps 746 mmHg 87%
    13:00 -5°C° 0 mm 3 mps 747 mmHg 88%
    14:00 -5°C° 0 mm 3 mps 747 mmHg 89%
    15:00 -5°C° 0 mm 2 mps 747 mmHg 91%
    16:00 -5°C° 0 mm 2 mps 747 mmHg 92%
    17:00 -6°C° 0 mm 2 mps 747 mmHg 93%
    18:00 -6°C° 0 mm 2 mps 747 mmHg 94%
    19:00 -7°C° 0 mm 2 mps 747 mmHg 94%
    20:00 -7°C° 0 mm 2 mps 747 mmHg 95%
    21:00 -7°C° 0 mm 2 mps 746 mmHg 95%
    22:00 -7°C° 0 mm 2 mps 746 mmHg 95%
    23:00 -6°C° 0 mm 1 mps 746 mmHg 95%

    26 November, Monday

    Time Temperature Precipitation Wind Pressure Humidity
    00:00 -6°C° 0 mm 1 mps 745 mmHg 95%
    01:00 -6°C° 0 mm 1 mps 745 mmHg 95%
    02:00 -6°C° 0 mm 1 mps 745 mmHg 95%
    03:00 -4°C° 0 mm 1 mps 744 mmHg 95%
    04:00 -4°C° 0.2 mm 1 mps 743 mmHg 95%
    05:00 -4°C° 0.2 mm 1 mps 743 mmHg 96%
    06:00 -6°C° 0.2 mm 2 mps 742 mmHg 96%
    07:00 -6°C° 0.4 mm 2 mps 742 mmHg 96%
    08:00 -5°C° 0.4 mm 2 mps 741 mmHg 96%
    09:00 -5°C° 0.4 mm 2 mps 741 mmHg 96%
    10:00 -5°C° 0.4 mm 2 mps 740 mmHg 95%
    11:00 -5°C° 0.4 mm 2 mps 740 mmHg 95%
    12:00 -2°C° 0.4 mm 1 mps 739 mmHg 94%
    13:00 -2°C° 0.3 mm 1 mps 739 mmHg 94%
    14:00 -2°C° 0.3 mm 1 mps 738 mmHg 95%
    15:00 -2°C° 0.3 mm 1 mps 738 mmHg 95%
    16:00 -5°C° 0.2 mm 2 mps 738 mmHg 95%
    17:00 -5°C° 0.2 mm 2 mps 738 mmHg 95%
    18:00 -5°C° 0.2 mm 2 mps 738 mmHg 96%
    19:00 -6°C° 0.1 mm 2 mps 737 mmHg 95%
    20:00 -7°C° 0.1 mm 3 mps 737 mmHg 94%
    21:00 -7°C° 0.1 mm 3 mps 737 mmHg 94%
    22:00 -7°C° 0.2 mm 3 mps 738 mmHg 93%
    23:00 -7°C° 0.2 mm 3 mps 738 mmHg 93%
    Show more